DW5714 Weather Reports


time (UTC)temp
C
wind
direction
speed
KPH
gust
KPH
rain 1hr
cm
rain 24hr
cm
rain mn
cm
humidity
%
barometer
mb
20260510060025 8 344 0.0 0.0 0.00 0.00 0.00 98 1012.9
20260510054525 8 344 0.0 0.0 0.00 0.00 0.00 98 1013.1
20260510053024 8 344 0.0 0.0 0.00 0.00 0.00 98 1013.4
20260510051523 8 344 0.0 3.2 0.00 0.00 0.00 98 1013.6
20260510050021 8 14 0.0 12.9 0.00 0.00 0.00 98 1013.5
20260510044524 8 36 0.0 0.0 0.00 0.00 0.00 98 1013.2
20260510043020 8 156 0.0 6.4 0.00 0.00 0.00 98 1012.5
20260510041515 8 143 0.0 4.8 0.00 0.00 0.00 98 1012.2
20260510040012 8 143 0.0 0.0 0.00 0.00 0.00 98 1012.1
20260510034511 8 127 0.0 0.0 0.00 0.00 0.00 97 1012.0
20260510033010 8 147 0.0 0.0 0.00 0.00 0.00 97 1012.0
20260510031510 8 138 0.0 4.8 0.00 0.00 0.00 98 1011.7
20260510030010 8 183 0.0 6.4 0.00 0.00 0.00 97 1011.9
20260510024511 8 137 0.0 0.0 0.00 0.00 0.00 97 1011.6
20260510023009 8 132 0.0 8.0 0.00 0.00 0.00 97 1011.7
20260510021513 8 161 0.0 0.0 0.00 0.00 0.00 97 1011.8
20260510020008 8 144 0.0 0.0 0.00 0.00 0.00 97 1011.5
20260510014508 8 159 0.0 4.8 0.00 0.00 0.00 97 1011.5
20260510013007 9 155 0.0 0.0 0.00 0.00 0.00 97 1011.6
20260510011509 9 174 0.0 6.4 0.00 0.00 0.00 96 1011.4
20260510010007 9 166 0.0 4.8 0.00 0.00 0.00 96 1011.3
20260510004506 9 144 1.6 6.4 0.00 0.00 0.00 96 1011.0
20260510003018 10 167 0.0 9.7 0.00 0.00 0.00 96 1011.0
20260510001505 10 122 0.0 9.7 0.00 0.00 0.00 96 1010.9
20260510000005 10 134 0.0 4.8 0.00 0.00 0.00 95 1010.7
20260509234510 10 125 0.0 3.2 0.00 0.00 0.00 95 1010.5
20260509233004 10 134 0.0 3.2 0.00 0.00 0.00 95 1010.3
20260509231504 10 141 0.0 11.3 0.00 0.00 0.00 95 1010.4
20260509230003 10 180 1.6 9.7 0.00 0.00 0.00 95 1010.3
20260509224502 10 181 3.2 9.7 0.00 0.00 0.00 95 1010.2
20260509223002 10 130 0.0 12.9 0.00 0.00 0.00 95 1010.3
20260509221502 10 161 0.0 8.0 0.00 0.00 0.00 96 1010.2
20260509220001 10 162 4.8 9.7 0.00 0.00 0.00 96 1010.2
20260509214602 10 163 1.6 11.3 0.00 0.00 0.00 96 1010.4
20260509213057 10 152 0.0 8.0 0.00 0.00 0.00 97 1010.6
20260509211556 10 140 0.0 6.4 0.00 0.00 0.00 97 1010.8
20260509210052 10 69 1.6 9.7 0.00 0.00 0.00 98 1010.8
20260509204551 10 106 0.0 14.5 0.00 0.00 0.00 98 1010.9
20260509203114 9 157 1.6 14.5 0.00 0.00 0.00 98 1011.0
20260509201553 9 182 1.6 11.3 0.00 0.00 0.00 98 1011.1
20260509200055 9 110 1.6 14.5 0.00 0.00 0.00 98 1011.1
20260509194545 9 136 0.0 14.5 0.00 0.00 0.00 98 1011.3
20260509193047 9 135 0.0 12.9 0.00 0.00 0.00 98 1011.5
20260509191555 9 138 4.8 11.3 0.00 0.00 0.00 98 1011.5
20260509190042 9 121 3.2 9.7 0.00 0.00 0.00 98 1011.7
20260509184541 9 146 0.0 9.7 0.00 0.00 0.00 98 1011.6
20260509183047 9 144 1.6 8.0 0.00 0.00 0.00 98 1011.6
20260509181540 9 137 1.6 8.0 0.00 0.00 0.00 98 1011.6
20260509180041 9 153 0.0 8.0 0.00 0.00 0.00 98 1011.7
20260509174539 9 123 3.2 11.3 0.00 0.00 0.00 98 1011.6
20260509173039 9 127 1.6 9.7 0.00 0.00 0.00 98 1011.6
20260509171537 9 147 0.0 8.0 0.00 0.00 0.00 98 1011.5
20260509170037 9 146 0.0 4.8 0.00 0.00 0.00 98 1011.6
20260509164535 9 157 1.6 8.0 0.00 0.00 0.00 98 1011.7
20260509163033 9 183 1.6 6.4 0.00 0.00 0.00 98 1011.8
20260509161530 9 150 0.0 8.0 0.00 0.00 0.00 98 1012.0
20260509160028 8 152 0.0 0.0 0.00 0.00 0.00 98 1012.3
20260509154525 8 123 0.0 8.0 0.00 0.00 0.00 98 1012.4
20260509153023 8 140 0.0 6.4 0.00 0.00 0.00 98 1012.7
20260509151520 8 165 0.0 3.2 0.00 0.00 0.00 98 1013.0
20260509150019 8 150 0.0 1.6 0.00 0.00 0.00 98 1013.0
20260509144526 8 167 0.0 4.8 0.00 0.00 0.00 98 1013.1
20260509143018 8 140 0.0 4.8 0.00 0.00 0.00 98 1013.1
20260509141517 8 159 0.0 4.8 0.00 0.00 0.00 98 1012.9
20260509140015 8 128 0.0 6.4 0.00 0.00 0.00 98 1012.8
20260509134517 8 150 0.0 4.8 0.00 0.00 0.00 98 1012.9
20260509133015 7 159 1.6 6.4 0.00 0.00 0.00 98 1012.9
20260509131509 7 165 0.0 0.0 0.00 0.00 0.00 98 1013.0
20260509130008 7 165 0.0 0.0 0.00 0.00 0.00 98 1013.2
20260509124506 7 165 0.0 0.0 0.00 0.00 0.00 98 1013.3
20260509123008 7 165 0.0 1.6 0.00 0.00 0.00 98 1013.2
20260509121506 7 165 0.0 0.0 0.00 0.00 0.00 98 1013.3
20260509120005 7 166 0.0 4.8 0.00 0.00 0.00 98 1013.4
20260509114503 7 146 0.0 0.0 0.00 0.00 0.00 98 1013.3
20260509113002 7 144 0.0 0.0 0.00 0.00 0.00 98 1013.3
20260509111501 7 144 1.6 4.8 0.00 0.00 0.00 98 1013.4
20260509110059 7 144 0.0 3.2 0.00 0.00 0.00 97 1013.5
20260509104557 7 144 0.0 0.0 0.00 0.00 0.00 97 1013.4
20260509103101 7 144 1.6 4.8 0.00 0.00 0.00 97 1013.3
20260509101556 7 163 0.0 3.2 0.00 0.00 0.00 97 1013.3
20260509100055 7 163 0.0 4.8 0.00 0.00 0.00 97 1013.3
20260509094555 7 150 0.0 8.0 0.00 0.00 0.00 97 1013.3
20260509093054 7 153 0.0 0.0 0.00 0.00 0.00 97 1013.3
20260509091600 7 153 0.0 0.0 0.00 0.00 0.00 97 1013.2
20260509090053 7 153 0.0 0.0 0.00 0.00 0.00 97 1013.3
20260509084551 7 155 3.2 8.0 0.00 0.00 0.00 97 1013.6
20260509083048 7 156 0.0 0.0 0.00 0.00 0.00 96 1013.8
20260509081551 7 154 0.0 6.4 0.00 0.00 0.00 96 1013.9
20260509080046 7 182 0.0 4.8 0.00 0.00 0.00 96 1013.9
20260509074546 7 170 0.0 3.2 0.00 0.00 0.00 96 1014.0
20260509073045 7 157 0.0 0.0 0.00 0.00 0.00 96 1014.1
20260509071547 7 194 0.0 4.8 0.00 0.00 0.00 95 1014.1
20260509070042 6 202 0.0 3.2 0.00 0.00 0.00 95 1014.0
20260509064547 6 274 0.0 0.0 0.00 0.00 0.00 94 1014.2
20260509063039 6 274 0.0 0.0 0.00 0.00 0.00 94 1014.1
20260509061538 6 284 0.0 3.2 0.00 0.00 0.00 92 1014.3